{"data":{"norad_id":53417,"intl_designator":"2022-097AF","name":"STARLINK-4484","alt_names":[],"object_type":"PAYLOAD","status":"ACTIVE","operator":null,"country":"US","launch_date":"2022-08-10","launch_site_code":"AFETR","launch_vehicle":null,"mission":null,"orbit_class":"UNKNOWN","rcs_meters":null,"size_class":null,"mass_kg":null,"dimensions":null,"purposes":["comms"],"wikipedia_slug":null,"has_3d_model":false,"image_url":null,"decayed_at":null,"tle_current":{"epoch":"2026-05-25T03:05:09.998016Z","epoch_age_seconds":60143,"freshness":"FRESH","line1":"1 53417U 22097AF  26145.12858794  .00006129  00000+0  40275-3 0  9990","line2":"2 53417  53.2152 130.9711 0001428  74.6136 285.5014 15.08847762210167","mean_motion":15.08847762,"eccentricity":0.0001428,"inclination_deg":53.2152,"raan_deg":130.9711,"arg_perigee_deg":74.6136,"mean_anomaly_deg":285.5014,"bstar":0.00040275,"rev_number":21016,"period_min":95.437063716174,"perigee_km":538.73179380547,"apogee_km":540.70753366863,"semimajor_km":6917.856663737,"source":"CELESTRAK","updated_at":"2026-05-25T13:38:17.402366Z"}}}